Change the Weather History Date:

Tuesday, March 12, 2013

  Actual Average Record
Temperature  
Mean Temperature 58 °F -  
Max Temperature 65 °F 64 °F 69 °F (1997)
Min Temperature 51 °F 50 °F 37 °F (1999)
Degree Days  
Heating Degree Days 7    
Growing Degree Days 8 (Base 50)    
Moisture  
Dew Point 49 °F    
Average Humidity 67    
Maximum Humidity 82    
Minimum Humidity 35    
Precipitation  
Precipitation 0.04 in - - ()
Sea Level Pressure  
Sea Level Pressure 29.77 in    
Wind  
Wind Speed 4 mph ()    
Max Wind Speed 7 mph    
Max Gust Speed -    
Visibility 6.1 miles    
Events Rain    
Averages and records for this station are not official NWS values.
T = Trace of Precipitation, MM = Missing Value Source: Averaged Metar Reports

Daily Weather History Graph

Daily Weather History Graph

Search for Another Location

Airport or City:

Trip Planner

Search our weather history database for the weather conditions in past years. The results will help you decide how hot, cold, wet, or windy it might be!

Date:

Astronomy

Mar. 12, 2013 Rise Set
Actual Time 6:30 AM WET 6:20 PM WET
Civil Twilight 6:04 AM WET 6:45 PM WET
Nautical Twilight 5:35 AM WET 7:15 PM WET
Astronomical Twilight 5:05 AM WET 7:44 PM WET
Moon 6:31 AM WET (3/12) 7:16 PM WET (3/12)
Length of Visible Light 12h 40m
Length of Day
11h 50m
New Moon, 1% of the Moon is Illuminated
Mar 12
New Moon
Mar 19
First Quarter
Mar 27
Full
Apr 3
Last Quarter
Apr 10
New

Hourly Weather History & Observations

Time (WET) Temp. Dew Point Humidity Pressure Visibility Wind Dir Wind Speed Gust Speed Precip Events Conditions
6:00 AM 57 °F 53 °F 81% 29.87 in 6 mi SSW 4.6 mph - -   Overcast
6:00 AM 57.2 °F 51.8 °F 82% 29.86 in 6.2 mi SSW 4.6 mph - N/A   Mostly Cloudy
7:00 AM 53.6 °F 48.2 °F 82% 29.86 in 6.2 mi SSW 2.3 mph - N/A   Mostly Cloudy
8:00 AM 55.4 °F 50.0 °F 82% 29.86 in 6.2 mi SSW 4.6 mph - N/A   Scattered Clouds
9:00 AM 61 °F 51 °F 60% 29.86 in 6 mi SSW 4.6 mph - -   Partly Cloudy
9:00 AM 60.8 °F 50.0 °F 68% 29.86 in 6.2 mi SSW 4.6 mph - N/A   Mostly Cloudy
10:00 AM 62.6 °F 46.4 °F 55% 29.83 in 6.2 mi SSE 4.6 mph - N/A   Mostly Cloudy
11:00 AM 62.6 °F 46.4 °F 55% 29.80 in 6.2 mi South 4.6 mph - N/A   Mostly Cloudy
12:00 PM 64 °F 43 °F 35% 29.80 in 6 mi SSW 6.9 mph - -   Partly Cloudy
12:00 PM 64.4 °F 42.8 °F 45% 29.77 in 6.2 mi SSW 6.9 mph - N/A   Mostly Cloudy
1:00 PM 62.6 °F 42.8 °F 48% 29.77 in 5.0 mi West 4.6 mph - N/A   Mostly Cloudy
2:00 PM 60.8 °F 50.0 °F 68% 29.74 in 6.2 mi WSW 4.6 mph - N/A   Overcast
3:00 PM 59 °F 47 °F 55% 29.74 in 6 mi South 6.9 mph - - Rain Light Rain
3:00 PM 59.0 °F 46.4 °F 63% 29.74 in 6.2 mi South 6.9 mph - N/A Rain Light Rain
4:00 PM 62.6 °F 48.2 °F 59% 29.68 in 6.2 mi SSW 4.6 mph - N/A   Overcast
5:00 PM 59.0 °F 46.4 °F 63% 29.68 in 6.2 mi South 4.6 mph - N/A   Overcast
6:00 PM 61 °F 54 °F 70% 29.69 in 6 mi South 2.3 mph - - Rain Light Rain
6:00 PM 60.8 °F 53.6 °F 77% 29.68 in 6.2 mi South 2.3 mph - N/A   Overcast
7:00 PM 59.0 °F 53.6 °F 82% 29.68 in 6.2 mi SE 6.9 mph - N/A Rain Light Rain
8:00 PM 59.0 °F 51.8 °F 77% 32.63 in 6.2 mi SSE 2.3 mph - N/A   Overcast
9:00 PM 57 °F 52 °F 79% 29.69 in 6 mi SSW 2.3 mph - -   Overcast
9:00 PM 57.2 °F 51.8 °F 82% 29.68 in 6.2 mi SSW 2.3 mph - N/A   Overcast